Theta_e
317 327 343 343 344 346 345 345 345 344 344 342 342 341 339 339 340 340 341 343 342 343 343 341 340 340 339 339 340 339 338 337 338 337 336 335 334 335 334 332 330 326 325
323 330 341 342 341 342 344 343 342 341 341 340 339 338 337 336 335 335 335 337 339 339 340 339 337 335 334 333 334 333 334 335 336 337 336 336 337 338 337 337 334 329 327
328 334 336 339 339 339 339 338 338 338 339 339 338 336 336 335 334 333 333 332 333 334 334 334 334 332 329 329 329 332 331 333 335 335 335 329 332 338 339 337 337 336 333
327 330 332 336 337 338 337 336 335 335 336 337 336 334 334 334 332 331 330 330 330 330 330 329 327 327 329 330 330 332 330 332 333 334 328 330 333 337 338 336 337 337 335
322 327 330 333 334 335 335 335 333 333 333 333 332 332 331 330 329 329 329 328 328 328 326 326 330 330 329 327 326 326 329 332 331 330 328 330 330 337 339 339 338 337 338
320 325 330 331 333 332 331 332 331 330 331 330 329 329 328 327 327 326 326 325 325 325 326 330 329 330 331 334 333 331 333 333 330 326 326 332 331 338 338 338 336 334 335
315 321 326 329 330 329 330 330 329 327 328 327 326 325 325 324 324 324 323 323 323 326 330 328 328 329 330 332 333 334 333 330 325 325 326 328 331 337 337 337 335 334 334
315 318 321 324 326 326 327 327 326 325 324 324 324 323 322 322 321 321 322 322 324 330 329 327 328 329 330 332 332 330 329 328 325 325 326 329 334 335 335 334 332 332 331
311 312 314 317 320 321 322 322 322 322 321 321 321 320 319 319 320 320 321 323 327 327 326 327 327 328 328 331 330 328 326 325 321 325 327 328 332 334 333 332 330 329 328
308 311 310 312 312 311 311 316 317 317 318 317 316 315 316 316 318 319 321 326 325 324 325 325 325 324 326 325 325 323 324 324 321 324 325 326 329 331 330 329 328 327 326
306 306 306 307 307 307 308 308 310 311 312 312 310 310 307 305 306 309 317 323 322 324 324 323 322 321 319 318 318 318 318 318 320 321 323 326 328 328 327 326 325 324 324
303 303 304 304 304 305 306 303 300 300 298 298 299 298 300 302 304 305 311 316 323 322 321 319 316 313 311 309 309 312 311 313 318 319 320 324 325 325 325 322 321 321 320
303 302 303 302 301 301 301 300 298 297 296 295 294 294 297 299 298 299 302 303 308 307 303 303 302 303 306 307 306 306 308 308 310 315 320 322 322 322 321 319 318 318 317
301 301 300 299 297 298 295 297 296 294 294 293 292 293 294 296 298 298 300 299 300 299 298 298 296 299 302 303 303 303 302 303 305 306 311 318 319 318 319 318 316 317 315
300 298 297 297 296 296 295 294 293 293 294 293 293 294 294 296 296 296 296 297 297 297 295 292 294 297 298 298 298 299 299 299 300 302 303 315 318 316 318 318 317 316 315
300 297 296 297 297 295 293 293 292 293 293 292 292 293 294 295 294 295 295 295 295 294 291 290 293 295 294 295 294 295 295 296 297 297 297 303 316 316 316 317 316 316 315
297 296 294 294 295 293 292 293 293 293 292 291 291 292 293 293 294 293 294 293 293 290 288 288 290 293 292 292 291 291 292 292 293 293 294 296 298 311 314 314 315 313 313
293 294 294 295 293 292 293 292 293 293 292 291 290 291 291 294 294 293 292 292 290 288 287 289 287 288 288 288 287 286 287 288 288 289 291 292 292 294 303 308 309 310 311
294 294 294 293 292 292 293 293 292 292 291 290 289 289 290 293 295 294 292 290 288 286 286 288 287 285 286 285 285 284 284 284 283 285 283 284 287 287 288 297 302 306 306
294 294 294 294 292 292 292 291 292 292 292 292 291 290 290 293 294 292 290 289 287 286 285 285 284 284 284 285 284 283 283 282 281 280 280 282 282 283 283 284 285 289 303
293 294 293 292 291 291 290 289 290 290 290 289 290 289 290 292 293 290 289 288 287 287 285 286 285 284 284 285 282 282 282 281 280 279 279 279 280 280 281 281 280 282 285
292 293 293 292 291 291 292 291 290 291 290 290 289 288 290 292 292 290 289 287 286 286 285 285 285 283 283 283 281 281 279 280 281 281 280 280 278 279 280 280 280 280 281
291 291 292 292 291 292 291 289 286 286 285 286 286 287 288 291 292 291 289 288 286 286 285 285 284 284 282 282 283 281 277 277 278 279 280 280 279 279 278 278 279 280 279
290 290 291 292 291 291 290 288 285 285 284 283 285 286 287 290 291 291 289 288 286 286 285 285 285 284 284 282 282 283 281 280 278 276 279 279 279 280 278 278 278 278 279
289 287 288 289 289 289 288 288 286 285 284 283 283 283 285 287 290 290 289 287 286 286 285 285 284 284 284 283 282 280 280 279 280 278 276 277 278 279 279 279 279 278 279
285 285 285 285 286 286 286 286 286 285 282 282 281 282 282 284 287 290 289 288 287 286 285 284 284 284 284 283 282 281 281 280 279 278 277 276 276 278 278 279 279 279 279
Wind_Speed
2 4 8 11 10 13 14 14 14 14 13 13 12 10 8 9 9 8 9 9 7 8 10 8 8 9 7 5 7 6 6 5 5 4 4 4 3 2 2 3 3 2 4
4 4 8 10 10 11 13 14 13 11 11 11 9 8 8 7 6 4 3 6 7 7 6 6 6 6 6 4 4 4 2 4 4 4 3 3 6 6 4 3 3 2 3
4 3 5 10 7 6 6 8 9 9 9 9 8 7 7 7 7 5 4 2 5 5 5 6 6 6 3 3 3 5 1 2 4 3 2 1 3 2 5 5 6 6 5
5 6 5 8 5 7 6 6 7 7 8 7 7 7 7 7 6 6 5 4 4 3 5 4 3 0 1 3 1 5 3 3 4 2 0 1 2 6 5 2 5 4 3
6 6 6 7 3 6 4 6 5 5 6 6 6 7 7 7 7 7 7 7 6 5 5 5 5 5 5 4 1 2 0 1 4 2 2 2 2 8 13 18 23 24 21
5 6 8 5 3 5 4 4 5 6 5 6 6 6 6 6 6 7 7 6 6 5 6 7 7 8 7 7 4 4 6 8 7 5 4 6 5 14 18 23 24 24 23
6 6 8 7 5 3 4 4 5 5 6 6 6 6 6 6 5 6 6 6 6 7 9 9 8 8 8 8 9 10 14 12 6 6 7 6 8 19 21 24 24 25 23
8 7 9 10 9 5 2 2 4 4 5 6 6 6 6 6 5 5 6 7 8 9 11 9 10 10 7 9 13 12 13 11 7 9 7 7 17 22 23 23 23 22 21
3 2 6 10 10 11 6 3 3 4 4 4 5 6 5 5 5 5 5 9 9 10 10 11 11 12 10 15 16 14 15 13 7 8 9 6 17 22 24 23 24 22 21
3 3 2 4 10 8 6 10 6 2 2 3 3 4 5 2 3 2 3 7 9 9 12 13 13 12 14 15 15 16 15 14 9 11 7 8 21 23 23 23 24 22 22
4 4 3 2 4 9 9 8 8 4 1 3 4 3 5 2 4 5 3 7 8 12 12 15 14 14 13 16 16 16 12 6 8 8 6 18 23 22 23 22 23 22 23
9 7 6 5 6 6 6 7 7 5 3 3 3 2 1 2 2 4 8 11 11 12 14 13 11 10 9 4 5 11 5 7 7 7 6 19 22 22 24 20 21 21 20
9 5 6 5 4 5 4 4 3 3 1 2 4 3 2 2 2 3 3 3 4 10 4 7 4 4 7 5 5 5 8 7 5 5 10 18 20 20 19 17 18 19 18
9 9 7 6 6 5 4 5 5 5 2 2 2 5 3 2 2 2 2 4 4 3 5 4 3 5 8 8 7 7 9 6 4 4 5 13 18 17 17 17 17 17 15
12 10 10 8 7 6 5 3 4 4 4 2 3 3 3 3 3 3 3 3 3 4 4 4 4 6 7 8 7 8 10 9 7 5 4 14 16 16 15 17 16 16 16
12 13 10 11 9 8 5 6 3 3 6 3 2 2 3 2 3 3 3 3 4 4 4 4 4 7 6 7 8 8 9 7 7 8 5 8 12 15 14 13 16 14 16
10 10 13 11 10 9 7 5 4 3 5 4 3 4 4 4 4 5 4 3 4 4 6 5 6 7 7 7 8 7 7 7 7 9 6 7 7 12 14 13 13 12 13
8 13 12 11 11 10 9 6 4 2 3 4 3 3 5 5 5 5 4 3 4 4 4 5 5 7 6 6 5 6 6 7 8 8 7 7 6 6 7 10 8 10 12
13 13 13 12 13 12 10 8 7 8 4 3 3 3 4 4 5 5 5 4 5 4 4 6 3 4 7 6 7 5 5 5 5 6 8 7 7 7 6 11 14 9 8
13 13 13 11 12 10 8 6 4 4 3 3 3 3 5 4 5 5 4 5 5 5 4 4 6 4 5 7 8 6 4 4 4 5 5 5 5 6 5 5 5 6 9
13 14 16 15 14 12 8 7 4 6 4 5 5 8 7 5 5 5 4 5 5 5 5 6 6 9 4 5 5 4 4 5 5 4 3 3 4 4 4 4 3 4 5
17 17 15 17 16 13 10 8 4 6 4 3 4 5 5 6 6 6 6 6 6 5 5 6 7 4 3 1 4 3 2 2 2 2 1 1 2 2 2 2 3 4 3
14 16 17 17 16 14 12 8 4 5 4 5 5 3 3 6 7 6 7 6 6 6 7 5 5 5 4 1 2 4 3 4 2 0 1 1 2 1 1 1 2 2 2
10 9 10 13 14 12 14 12 10 7 7 5 6 6 8 8 8 8 9 8 8 5 6 6 4 4 5 4 2 2 3 3 4 1 1 2 2 3 3 2 1 1 1
7 8 8 10 12 11 13 12 10 8 4 3 4 7 6 6 7 7 7 7 8 6 6 8 6 6 3 4 3 3 2 2 2 3 2 2 1 3 3 3 2 2 2
6 7 8 11 11 11 13 12 14 13 8 7 6 6 6 4 4 6 7 8 8 7 8 7 6 7 6 4 3 3 4 4 3 3 2 2 3 2 3 3 3 3 2
Wind_Direction
272 189 157 129 125 134 141 143 134 135 136 132 128 125 87 80 73 63 66 71 98 106 102 96 92 77 64 59 87 80 81 49 33 9 8 353 328 283 149 125 99 61 77
162 199 169 137 134 125 125 123 124 130 133 136 133 132 131 122 133 91 58 71 74 75 63 54 71 60 26 14 355 39 56 49 51 12 344 324 303 260 233 205 189 191 113
122 129 108 121 127 123 112 112 130 140 149 153 149 156 149 145 141 130 112 95 67 53 63 42 38 31 356 30 337 266 110 5 52 343 297 301 305 33 216 218 223 195 162
102 91 92 100 141 144 142 157 170 167 163 149 149 161 156 143 135 130 122 112 106 102 97 113 96 78 228 196 115 62 115 321 7 283 174 19 2 25 18 23 65 77 116
96 85 99 105 116 131 138 160 164 170 173 153 172 169 160 143 143 138 132 124 122 119 110 119 134 116 68 25 323 305 156 256 81 26 339 26 49 82 80 89 87 73 62
104 106 115 106 119 136 148 158 160 169 164 162 168 164 158 147 140 136 135 135 132 126 130 126 107 87 74 54 85 169 165 109 75 59 55 59 84 96 102 96 90 82 75
149 136 124 114 106 141 158 173 162 172 163 166 160 159 153 148 148 147 145 144 143 142 123 109 100 82 72 86 89 84 95 94 89 74 57 64 90 102 97 90 84 79 79
158 157 132 121 119 100 117 161 160 180 179 170 165 157 153 155 154 159 157 153 156 136 106 108 102 89 82 103 93 81 85 85 82 76 68 80 95 93 87 85 82 81 77
151 149 142 137 125 111 94 102 152 184 187 172 171 156 153 155 159 161 164 158 158 119 116 107 100 89 87 94 92 87 72 63 70 80 66 80 93 93 89 86 82 80 77
193 180 185 150 130 122 115 88 73 104 173 175 160 134 129 116 99 152 307 164 137 128 119 107 96 103 77 80 84 77 72 68 66 75 71 84 91 86 86 85 84 84 83
218 202 192 169 136 135 131 118 96 74 146 147 128 106 54 42 17 2 314 125 151 121 115 104 98 91 82 74 71 68 73 64 72 72 77 83 87 86 86 82 86 85 82
204 203 199 179 165 149 138 130 127 118 104 85 89 82 90 66 50 61 55 39 117 114 105 96 100 102 78 53 56 63 67 63 72 77 90 93 88 88 84 83 85 85 84
200 195 191 184 171 163 129 117 116 97 134 133 151 153 145 97 50 56 65 41 60 77 60 70 68 46 68 69 60 69 72 60 63 67 97 91 87 91 94 97 90 86 88
191 195 179 182 166 173 139 160 151 142 165 144 192 162 152 133 111 93 89 88 77 76 89 86 75 76 69 69 64 70 70 64 57 52 26 99 86 84 87 91 89 89 92
201 188 183 173 170 171 155 129 147 159 141 162 176 191 154 160 153 129 116 111 103 101 105 99 89 86 76 69 59 65 68 53 51 57 40 62 98 96 95 98 98 100 94
200 193 174 180 169 156 155 153 169 178 132 156 183 199 187 175 155 143 138 124 111 105 102 94 101 95 82 79 66 56 63 57 60 55 32 51 77 101 98 95 99 95 97
199 178 176 172 163 158 145 144 138 185 145 138 192 198 188 182 166 151 145 139 129 113 107 90 86 92 86 78 71 60 57 46 51 54 36 57 35 58 97 94 96 106 102
174 181 174 175 165 155 148 144 151 176 167 153 174 193 185 180 170 153 141 147 133 118 115 116 104 93 85 73 73 53 50 49 46 46 47 51 41 37 38 96 94 85 91
188 176 176 170 168 163 162 158 159 169 159 160 162 167 190 194 170 163 151 150 136 124 121 137 93 101 108 94 84 60 47 50 41 49 48 43 43 46 39 32 24 52 84
190 180 174 172 167 159 146 133 132 145 174 172 188 179 178 194 176 154 149 152 138 125 125 112 115 64 105 116 98 76 65 60 52 51 54 58 50 55 50 43 18 12 68
189 179 177 170 169 157 155 149 162 190 180 195 189 195 166 190 171 161 150 154 140 150 152 141 113 121 89 133 112 52 44 48 55 50 55 65 66 61 56 48 34 29 24
193 190 178 180 171 175 174 170 153 151 184 192 188 195 169 175 171 164 166 162 149 134 144 154 144 124 94 115 116 109 111 1 31 59 60 96 108 67 101 93 88 70 49
194 187 186 180 175 175 165 143 101 105 99 174 179 151 180 182 177 172 173 162 154 149 168 164 156 135 131 190 94 131 126 210 147 20 223 202 170 181 203 162 136 120 113
200 176 175 176 172 172 163 164 170 179 176 194 178 170 178 177 182 180 174 168 161 156 159 167 152 141 131 147 100 75 68 137 158 179 264 232 210 224 210 217 181 202 193
159 163 158 159 166 168 174 177 179 186 159 131 123 152 160 168 176 179 169 165 165 166 158 164 150 153 136 142 140 151 136 85 88 126 183 225 259 221 216 200 196 216 223
140 141 145 155 170 166 174 182 187 188 152 143 151 165 164 159 168 179 173 176 172 163 166 172 158 159 158 143 155 165 166 162 177 146 128 197 186 213 192 180 195 213 219